• In Belarus
  • List of Countries
  • For 7 days
  • Water Temperature
  • Weather Map
  • Weather Widgets
  • user-avatar
    Login

    Hourly Weather Babruysk

    Today, 31 March, Tuesday

    Time Temperature Precipitation Wind Pressure Humidity
    00:00 -4°C° 0 mm 4 mps 749 mmHg 69%
    01:00 -3°C° 0 mm 4 mps 749 mmHg 66%
    02:00 -4°C° 0 mm 3 mps 750 mmHg 72%
    03:00 -5°C° 0 mm 3 mps 750 mmHg 70%
    04:00 -5°C° 0 mm 4 mps 750 mmHg 68%
    05:00 -5°C° 0 mm 4 mps 750 mmHg 66%
    06:00 -5°C° 0 mm 4 mps 751 mmHg 61%
    07:00 -4°C° 0 mm 4 mps 751 mmHg 57%
    08:00 -4°C° 0 mm 5 mps 752 mmHg 50%
    09:00 -2°C° 0 mm 5 mps 752 mmHg 45%
    10:00 -2°C° 0 mm 5 mps 752 mmHg 40%
    11:00 -1°C° 0 mm 5 mps 752 mmHg 36%
    12:00 0°C° 0 mm 5 mps 752 mmHg 34%
    13:00 0°C° 0 mm 5 mps 752 mmHg 33%
    14:00 +1°C° 0 mm 5 mps 752 mmHg 32%
    15:00 0°C° 0 mm 4 mps 752 mmHg 33%
    16:00 0°C° 0 mm 4 mps 752 mmHg 33%
    17:00 +1°C° 0 mm 3 mps 751 mmHg 34%
    18:00 +1°C° 0 mm 2 mps 751 mmHg 40%
    19:00 -2°C° 0 mm 2 mps 752 mmHg 46%
    20:00 -1°C° 0 mm 1 mps 752 mmHg 52%
    21:00 -1°C° 0 mm 1 mps 751 mmHg 53%
    22:00 -1°C° 0 mm 1 mps 751 mmHg 54%
    23:00 -1°C° 0 mm 1 mps 751 mmHg 55%

    Tomorrow, 1 April, Wednesday

    Time Temperature Precipitation Wind Pressure Humidity
    00:00 -3°C° 0 mm 2 mps 750 mmHg 58%
    01:00 -3°C° 0 mm 2 mps 750 mmHg 61%
    02:00 -4°C° 0 mm 3 mps 750 mmHg 64%
    03:00 -4°C° 0 mm 3 mps 749 mmHg 67%
    04:00 -4°C° 0 mm 3 mps 749 mmHg 69%
    05:00 -4°C° 0 mm 3 mps 748 mmHg 72%
    06:00 -3°C° 0 mm 4 mps 748 mmHg 68%
    07:00 -2°C° 0 mm 5 mps 748 mmHg 65%
    08:00 -2°C° 0 mm 5 mps 748 mmHg 62%
    09:00 -2°C° 0 mm 6 mps 747 mmHg 57%
    10:00 -1°C° 0 mm 6 mps 747 mmHg 53%
    11:00 +1°C° 0 mm 6 mps 746 mmHg 49%
    12:00 0°C° 0 mm 7 mps 746 mmHg 49%
    13:00 +2°C° 0 mm 7 mps 746 mmHg 50%
    14:00 +3°C° 0 mm 7 mps 746 mmHg 51%
    15:00 +2°C° 0 mm 7 mps 745 mmHg 52%
    16:00 +2°C° 0 mm 6 mps 745 mmHg 53%
    17:00 +2°C° 0 mm 6 mps 744 mmHg 54%
    18:00 +1°C° 0 mm 5 mps 744 mmHg 59%
    19:00 0°C° 0 mm 5 mps 744 mmHg 64%
    20:00 -1°C° 0 mm 4 mps 744 mmHg 69%
    21:00 -1°C° 0 mm 4 mps 744 mmHg 73%
    22:00 -1°C° 0 mm 4 mps 744 mmHg 77%
    23:00 -1°C° 0 mm 4 mps 743 mmHg 80%

    Day after tomorrow, 2 April, Thursday

    Time Temperature Precipitation Wind Pressure Humidity
    00:00 -2°C° 0 mm 4 mps 743 mmHg 82%
    01:00 -2°C° 0 mm 4 mps 743 mmHg 84%
    02:00 -2°C° 0 mm 4 mps 743 mmHg 86%
    03:00 -2°C° 0 mm 4 mps 743 mmHg 86%
    04:00 -2°C° 0 mm 4 mps 743 mmHg 86%
    05:00 -3°C° 0 mm 4 mps 742 mmHg 87%
    06:00 -2°C° 0 mm 5 mps 742 mmHg 84%
    07:00 -1°C° 0 mm 5 mps 742 mmHg 80%
    08:00 -1°C° 0 mm 6 mps 743 mmHg 77%
    09:00 -1°C° 0 mm 6 mps 742 mmHg 74%
    10:00 +1°C° 0 mm 6 mps 742 mmHg 71%
    11:00 +2°C° 0 mm 6 mps 742 mmHg 68%
    12:00 +2°C° 0 mm 6 mps 742 mmHg 67%
    13:00 +3°C° 0 mm 6 mps 742 mmHg 65%
    14:00 +4°C° 0 mm 6 mps 742 mmHg 63%
    15:00 +4°C° 0 mm 6 mps 742 mmHg 63%
    16:00 +5°C° 0 mm 5 mps 742 mmHg 62%
    17:00 +5°C° 0 mm 5 mps 742 mmHg 62%
    18:00 +4°C° 0 mm 4 mps 742 mmHg 68%
    19:00 +3°C° 0 mm 4 mps 742 mmHg 73%
    20:00 +1°C° 0 mm 4 mps 742 mmHg 79%
    21:00 0°C° 0 mm 4 mps 742 mmHg 80%
    22:00 0°C° 0 mm 4 mps 742 mmHg 81%
    23:00 0°C° 0 mm 4 mps 741 mmHg 83%

    3 April, Friday

    Time Temperature Precipitation Wind Pressure Humidity
    00:00 0°C° 0 mm 4 mps 741 mmHg 84%
    01:00 -1°C° 0 mm 4 mps 741 mmHg 85%
    02:00 -1°C° 0 mm 4 mps 741 mmHg 86%
    03:00 0°C° 0 mm 4 mps 741 mmHg 84%
    04:00 0°C° 0 mm 5 mps 740 mmHg 81%
    05:00 0°C° 0 mm 5 mps 740 mmHg 79%
    06:00 +1°C° 0 mm 5 mps 740 mmHg 76%
    07:00 +1°C° 0 mm 6 mps 740 mmHg 73%
    08:00 +2°C° 0 mm 6 mps 740 mmHg 70%
    09:00 +3°C° 0 mm 7 mps 740 mmHg 65%
    10:00 +5°C° 0 mm 7 mps 740 mmHg 60%
    11:00 +6°C° 0 mm 8 mps 740 mmHg 55%
    12:00 +6°C° 0 mm 8 mps 740 mmHg 55%
    13:00 +6°C° 0 mm 8 mps 740 mmHg 55%
    14:00 +8°C° 0 mm 7 mps 740 mmHg 56%
    15:00 +6°C° 0.1 mm 7 mps 741 mmHg 57%
    16:00 +6°C° 0.1 mm 7 mps 741 mmHg 59%
    17:00 +6°C° 0.1 mm 7 mps 741 mmHg 61%
    18:00 +5°C° 0.1 mm 6 mps 741 mmHg 65%
    19:00 +5°C° 0.1 mm 5 mps 742 mmHg 69%
    20:00 +4°C° 0.1 mm 4 mps 743 mmHg 74%
    21:00 +3°C° 0 mm 3 mps 744 mmHg 76%
    22:00 +2°C° 0 mm 3 mps 744 mmHg 78%
    23:00 +1°C° 0 mm 3 mps 745 mmHg 79%

    4 April, Saturday

    Time Temperature Precipitation Wind Pressure Humidity
    00:00 +1°C° 0 mm 3 mps 745 mmHg 81%
    01:00 +1°C° 0 mm 3 mps 745 mmHg 82%
    02:00 0°C° 0 mm 4 mps 746 mmHg 83%
    03:00 -1°C° 0 mm 4 mps 746 mmHg 85%
    04:00 0°C° 0 mm 3 mps 746 mmHg 86%
    05:00 0°C° 0 mm 3 mps 747 mmHg 88%
    06:00 0°C° 0 mm 4 mps 747 mmHg 80%
    07:00 +1°C° 0 mm 5 mps 748 mmHg 72%
    08:00 +1°C° 0 mm 6 mps 749 mmHg 64%
    09:00 +3°C° 0 mm 6 mps 749 mmHg 58%
    10:00 +4°C° 0 mm 6 mps 750 mmHg 52%
    11:00 +6°C° 0 mm 5 mps 750 mmHg 46%
    12:00 +6°C° 0 mm 5 mps 750 mmHg 44%
    13:00 +7°C° 0 mm 6 mps 751 mmHg 42%
    14:00 +7°C° 0 mm 6 mps 751 mmHg 39%
    15:00 +7°C° 0.1 mm 6 mps 752 mmHg 41%
    16:00 +5°C° 0.1 mm 6 mps 752 mmHg 42%
    17:00 +5°C° 0.1 mm 6 mps 752 mmHg 44%
    18:00 +5°C° 0 mm 5 mps 753 mmHg 49%
    19:00 +4°C° 0 mm 4 mps 754 mmHg 55%
    20:00 +2°C° 0 mm 3 mps 755 mmHg 60%
    21:00 +2°C° 0 mm 3 mps 755 mmHg 62%
    22:00 +1°C° 0 mm 3 mps 756 mmHg 65%
    23:00 +1°C° 0 mm 3 mps 757 mmHg 67%

    5 April, Sunday

    Time Temperature Precipitation Wind Pressure Humidity
    00:00 0°C° 0 mm 3 mps 757 mmHg 69%
    01:00 0°C° 0 mm 3 mps 758 mmHg 71%
    02:00 -1°C° 0 mm 3 mps 758 mmHg 74%
    03:00 -1°C° 0 mm 3 mps 759 mmHg 75%
    04:00 -2°C° 0 mm 3 mps 760 mmHg 76%
    05:00 -2°C° 0 mm 2 mps 761 mmHg 77%
    06:00 -1°C° 0 mm 3 mps 761 mmHg 67%
    07:00 0°C° 0 mm 3 mps 762 mmHg 57%
    08:00 0°C° 0 mm 4 mps 763 mmHg 47%
    09:00 +1°C° 0 mm 4 mps 763 mmHg 41%
    10:00 +4°C° 0 mm 3 mps 764 mmHg 35%
    11:00 +5°C° 0 mm 3 mps 764 mmHg 29%
    12:00 +7°C° 0 mm 3 mps 764 mmHg 28%
    13:00 +7°C° 0 mm 3 mps 764 mmHg 27%
    14:00 +8°C° 0 mm 2 mps 764 mmHg 27%
    15:00 +8°C° 0 mm 2 mps 764 mmHg 28%
    16:00 +8°C° 0 mm 2 mps 764 mmHg 29%
    17:00 +7°C° 0 mm 2 mps 764 mmHg 31%
    18:00 +7°C° 0 mm 1 mps 764 mmHg 36%
    19:00 +6°C° 0 mm 1 mps 765 mmHg 40%
    20:00 +4°C° 0 mm 1 mps 765 mmHg 45%
    21:00 +4°C° 0 mm 1 mps 765 mmHg 47%
    22:00 +3°C° 0 mm 1 mps 766 mmHg 48%
    23:00 +3°C° 0 mm 1 mps 766 mmHg 50%
    Show more